Location: Jaite
(41.2884°N, 81.5737°W)
Time: 16:23:31
(UTC+00:00)

Meteor 2-10 Rocket - Pass Details

Date: 18 January 2020
Orbit: 733 x 885 km, 81.2° (Epoch: 25 February)

Event Time Altitude Azimuth Distance (km) Brightness Sun altitude
Rises 23:59:51 0° 357° (N) 3,368 6.7 -17.8°
Reaches altitude 10° 00:02:29 10° 6° (N) 2,405 5.9 -18.2°
Maximum altitude 00:07:28 37° 73° (ENE) 1,217 4.0 -19.2°
Enters shadow 00:07:44 36° 80° (E) 1,220 4.0 -19.2°
